TimeCST,TemperatureF,Dew PointF,Humidity,Sea Level PressureIn,VisibilityMPH,Wind Direction,Wind SpeedMPH,Gust SpeedMPH,PrecipitationIn,Events,Conditions,WindDirDegrees,DateUTC
12:53 AM,57.0,55.0,93,29.96,9.0,Calm,Calm,-,N/A,,Clear,0,2013-02-08 06:53:00
1:53 AM,55.9,54.0,93,29.96,7.0,NNW,3.5,-,N/A,,Clear,340,2013-02-08 07:53:00
2:53 AM,55.0,54.0,96,29.96,4.0,Calm,Calm,-,N/A,,Clear,0,2013-02-08 08:53:00
3:06 AM,53.6,53.6,100,29.95,1.8,NNW,3.5,-,N/A,,Clear,340,2013-02-08 09:06:00
3:26 AM,53.6,51.8,94,29.96,2.0,Calm,Calm,-,N/A,,Clear,0,2013-02-08 09:26:00
3:33 AM,53.6,53.6,100,29.96,1.0,Calm,Calm,-,N/A,,Clear,0,2013-02-08 09:33:00
3:41 AM,53.6,53.6,100,29.96,0.5,Calm,Calm,-,N/A,Fog,Fog,0,2013-02-08 09:41:00
3:53 AM,54.0,53.1,97,29.97,0.8,Calm,Calm,-,N/A,,Clear,0,2013-02-08 09:53:00
4:01 AM,53.6,51.8,94,29.96,3.0,North,3.5,-,N/A,,Clear,350,2013-02-08 10:01:00
4:53 AM,54.0,52.0,93,29.99,6.0,North,3.5,-,N/A,,Clear,360,2013-02-08 10:53:00
5:06 AM,53.6,51.8,94,29.99,1.8,NNW,3.5,-,N/A,,Clear,340,2013-02-08 11:06:00
5:21 AM,53.6,51.8,94,29.99,2.5,NNW,5.8,-,N/A,,Clear,340,2013-02-08 11:21:00
5:27 AM,51.8,51.8,100,29.99,3.0,NNW,5.8,-,N/A,,Partly Cloudy,340,2013-02-08 11:27:00
5:32 AM,51.8,51.8,100,30.00,1.8,NNW,5.8,-,N/A,,Scattered Clouds,330,2013-02-08 11:32:00
5:46 AM,51.8,51.8,100,30.00,3.0,NNW,5.8,-,N/A,,Partly Cloudy,330,2013-02-08 11:46:00
5:53 AM,51.8,50.0,94,30.01,3.0,NNW,4.6,-,N/A,,Scattered Clouds,330,2013-02-08 11:53:00
5:55 AM,51.8,50.0,94,30.01,2.5,NNW,4.6,-,N/A,,Mostly Cloudy,330,2013-02-08 11:55:00
6:04 AM,51.8,50.0,94,30.01,1.0,NNW,4.6,-,N/A,,Partly Cloudy,330,2013-02-08 12:04:00
6:10 AM,51.8,50.0,94,30.01,0.5,NNW,3.5,-,N/A,Fog,Fog,340,2013-02-08 12:10:00
6:18 AM,51.8,50.0,94,30.01,0.5,Calm,Calm,-,N/A,Fog,Fog,0,2013-02-08 12:18:00
6:24 AM,51.8,50.0,94,30.01,1.0,Calm,Calm,-,N/A,,Mist,0,2013-02-08 12:24:00
6:31 AM,51.8,50.0,94,30.01,2.0,Calm,Calm,-,N/A,,Scattered Clouds,0,2013-02-08 12:31:00
6:53 AM,51.1,50.0,96,30.03,3.0,NNW,3.5,-,N/A,,Partly Cloudy,340,2013-02-08 12:53:00
7:08 AM,51.8,51.8,100,30.03,0.5,NNW,3.5,-,N/A,Fog,Fog,330,2013-02-08 13:08:00
7:35 AM,53.6,53.6,100,30.04,1.2,Calm,Calm,-,N/A,,Overcast,0,2013-02-08 13:35:00
7:42 AM,53.6,53.6,100,30.03,3.0,Calm,Calm,-,N/A,,Overcast,0,2013-02-08 13:42:00
7:53 AM,55.0,54.0,96,30.04,4.0,NW,3.5,-,N/A,,Mostly Cloudy,320,2013-02-08 13:53:00
8:53 AM,61.0,57.0,87,30.06,9.0,Calm,Calm,-,N/A,,Partly Cloudy,0,2013-02-08 14:53:00
9:53 AM,63.0,55.9,78,30.07,10.0,SE,3.5,-,N/A,,Overcast,140,2013-02-08 15:53:00
10:53 AM,66.2,55.4,68,30.06,10.0,Calm,Calm,-,N/A,,Scattered Clouds,0,2013-02-08 16:53:00
11:37 AM,69.8,57.2,64,30.06,10.0,West,8.1,-,N/A,,Overcast,280,2013-02-08 17:37:00
11:53 AM,68.0,55.9,65,30.06,10.0,WNW,9.2,-,N/A,,Overcast,290,2013-02-08 17:53:00
12:16 PM,69.8,57.2,64,30.05,10.0,WNW,9.2,-,N/A,,Overcast,300,2013-02-08 18:16:00
12:53 PM,71.1,57.0,61,30.04,10.0,Variable,6.9,-,N/A,,Mostly Cloudy,0,2013-02-08 18:53:00
1:53 PM,70.0,55.0,59,30.04,10.0,WNW,10.4,-,N/A,,Overcast,290,2013-02-08 19:53:00
2:53 PM,71.1,55.9,59,30.04,10.0,North,5.8,-,N/A,,Scattered Clouds,350,2013-02-08 20:53:00
3:53 PM,71.1,55.9,59,30.04,10.0,East,4.6,-,N/A,,Partly Cloudy,80,2013-02-08 21:53:00
4:53 PM,66.9,59.0,76,30.04,10.0,South,5.8,-,N/A,,Partly Cloudy,180,2013-02-08 22:53:00
5:53 PM,63.0,59.0,87,30.06,10.0,Calm,Calm,-,N/A,,Clear,0,2013-02-08 23:53:00
6:53 PM,63.0,55.9,78,30.09,10.0,North,5.8,-,N/A,,Partly Cloudy,10,2013-02-09 00:53:00
7:53 PM,61.0,54.0,78,30.12,10.0,North,13.8,-,N/A,,Clear,360,2013-02-09 01:53:00
8:53 PM,57.9,52.0,81,30.15,10.0,North,11.5,-,N/A,,Clear,350,2013-02-09 02:53:00
9:53 PM,57.0,51.1,81,30.15,10.0,North,9.2,-,N/A,,Scattered Clouds,360,2013-02-09 03:53:00
10:08 PM,57.2,51.8,82,30.14,10.0,North,11.5,18.4,N/A,,Mostly Cloudy,360,2013-02-09 04:08:00
10:53 PM,57.9,50.0,75,30.15,10.0,North,12.7,20.7,N/A,,Partly Cloudy,10,2013-02-09 04:53:00
11:53 PM,55.9,48.0,75,30.16,10.0,North,9.2,-,N/A,,Clear,360,2013-02-09 05:53:00